DW8097 Weather Reports


time (UTC)temp
F
wind
direction
speed
knots
gust
knots
rain 1hr
in
rain 24hr
in
rain mn
in
humidity
%
barometer
mb
20260504024536 55 190 0.0 1.7 0.00 0.00 0.00 51 1002.3
20260504023035 55 221 0.0 1.7 0.00 0.00 0.00 50 1002.3
20260504021530 57 226 0.0 1.7 0.00 0.00 0.00 47 1002.4
20260504020030 58 229 0.9 1.7 0.00 0.00 0.00 45 1002.4
20260504014539 60 209 0.0 1.7 0.00 0.00 0.00 41 1002.4
20260504013015 63 301 0.0 3.5 0.00 0.00 0.00 33 1002.4
20260504011506 65 281 0.9 1.7 0.00 0.00 0.00 29 1002.4
20260504010006 66 297 0.0 2.6 0.00 0.00 0.00 29 1002.4
20260504004506 67 319 1.7 7.0 0.00 0.00 0.00 27 1002.3
20260504003004 68 296 2.6 7.8 0.00 0.00 0.00 26 1002.2
20260504001542 69 314 5.2 10.4 0.00 0.00 0.00 26 1002.3
20260504000041 70 344 4.3 7.8 0.00 0.00 0.00 26 1002.3
20260503234530 71 329 5.2 8.7 0.00 0.00 0.00 25 1002.3
20260503233029 71 314 3.5 10.4 0.00 0.00 0.00 24 1002.3
20260503231529 72 342 2.6 10.4 0.00 0.00 0.00 24 1002.4
20260503230028 71 355 6.1 12.2 0.00 0.00 0.00 22 1002.5
20260503224535 72 342 7.8 12.2 0.00 0.00 0.00 21 1002.5
20260503223025 72 329 6.1 14.8 0.00 0.00 0.00 21 1002.6
20260503221526 72 343 10.4 17.4 0.00 0.00 0.00 22 1002.4
20260503221524 72 9 10.4 17.4 0.00 0.00 0.00 22 1002.4
20260503220024 72 22 6.1 13.0 0.00 0.00 0.00 24 1002.4
20260503214530 72 360 4.3 10.4 0.00 0.00 0.00 25 1002.4
20260503213018 73 303 5.2 13.9 0.00 0.00 0.00 26 1002.4
20260503211516 73 355 7.8 13.9 0.00 0.00 0.00 27 1002.4
20260503210035 73 325 5.2 13.9 0.00 0.00 0.00 28 1002.6
20260503204512 73 355 5.2 12.2 0.00 0.00 0.00 28 1002.8
20260503203038 73 29 5.2 11.3 0.00 0.00 0.00 30 1003.0
20260503201538 73 355 4.3 9.6 0.00 0.00 0.00 30 1003.0
20260503200043 73 331 6.1 13.9 0.00 0.00 0.00 30 1003.1
20260503194534 72 30 6.1 13.0 0.00 0.00 0.00 29 1003.2
20260503193032 72 14 3.5 13.0 0.00 0.00 0.00 31 1003.3
20260503191534 72 350 7.0 13.9 0.00 0.00 0.00 30 1003.3
20260503190021 72 346 8.7 15.6 0.00 0.00 0.00 27 1003.4
20260503184521 71 351 8.7 13.9 0.00 0.00 0.00 31 1003.4
20260503183022 71 329 6.1 10.4 0.00 0.00 0.00 32 1003.5
20260503181514 70 338 5.2 11.3 0.00 0.00 0.00 34 1003.7
20260503180007 71 306 4.3 8.7 0.00 0.00 0.00 32 1003.8
20260503174502 69 350 4.3 12.2 0.00 0.00 0.00 36 1003.9
20260503173154 70 48 1.7 8.7 0.00 0.00 0.00 36 1004.1
20260503171554 68 24 5.2 7.0 0.00 0.00 0.00 35 1004.1
20260503081559 56 253 5.2 13.9 0.00 0.00 0.00 49 1005.2
20260503071543 54 221 3.5 6.1 0.00 0.00 0.00 49 1006.6
20260503054514 57 231 4.3 7.8 0.00 0.00 0.00 47 1007.6
20260503053006 57 242 2.6 6.1 0.00 0.00 0.00 48 1007.8
20260503051500 56 189 0.9 4.3 0.00 0.00 0.00 52 1008.0
20260503050058 57 227 2.6 6.1 0.00 0.00 0.00 51 1008.1
20260503044556 57 220 2.6 4.3 0.00 0.00 0.00 51 1008.2
20260503043048 57 232 2.6 4.3 0.00 0.00 0.00 51 1008.6
20260503041541 58 241 0.9 2.6 0.00 0.00 0.00 48 1008.8
20260503040037 59 260 0.9 3.5 0.00 0.00 0.00 46 1008.9
20260503034535 60 241 0.9 3.5 0.00 0.00 0.00 44 1009.0
20260503033029 60 274 1.7 3.5 0.00 0.00 0.00 42 1009.4
20260503031608 61 275 2.6 6.1 0.00 0.00 0.00 41 1009.8
20260503030054 61 250 3.5 7.0 0.00 0.00 0.00 40 1010.0
20260503024554 61 322 1.7 8.7 0.00 0.00 0.00 39 1010.0